Showing default

HAWK-10B, 60545

Orbit data source: Space-Track

HAWK-10B, 60545 is a payload satellite owned by HawkEye 360 (US) in SSO that was launched on Fri, 16 Aug 2024 UTC via an FALCON 9 launch vehicle from the Air Force Western Test Range (AFWTR). Payload-class satellites include a variety of spacecraft equipped with specific instruments for various scientific and technological missions. These include communications satellites like Starlink; space stations such as the ISS; scientific satellites like the Hubble; Earth observation satellites from companies like Planet Labs, Umbra, and HawkEye 360; GPS; miniature CubeSats for education and research; and military/defense satellites.

Loading next visibility...
Identifier
60545, 2024-149CF
Orbit
SSO
Country
Flag of USUS
Related business
Manufacturer
UTIAS-SFL
Mission
Operational Commercial Sigint
Bus & Motor
HAWK2G, Unknown motor
Mass
31 kg wet, 30 kg dry
Launch date (UTC)
2024-08-16 (1 year ago)
Launch vehicle
FALCON 9
Launch site
Air Force Western Test Range (AFWTR)
Object type
Payload
Rocket body
Debris
Shape & HBR
Box + 2 Pan, 1.0 m
Radar Cross Section
0.240 m², Medium (>0.1 m² and < 1m²)

Expand to show TLE details & history
Last TLE update: 15 hours ago

TLE from 15 hours ago
0 HAWK-10B
1 60545U 24149CF  26034.42230620  .00002768  00000-0  25173-3 0  9998
2 60545  97.6940 112.1016 0005774 164.9176 195.2218 14.96021519 79985
Epoch: 2026-02-03T10:08Z
TLE epoch observation values (Epoch: 2026-02-03T10:08:07.255Z)
Latitude
-0.00008°
Longitude
-173.53208°
Altitude
586.131 km
Speed
7.565 km/s
True Right ascension
07h 28m 24s
True Declination
0° 00' 00"
Sunlit
Object was in full shadow at epoch
Visualization orbit readout
Latitude
Unknown
Longitude
Unknown
Altitude
Unknown
Speed
Unknown
Apparent Right ascension
Unknown
Apparent Declination
Unknown
Sunlit
N/A
Visualization observer readout
Local Sidereal Time
02:54:01
Azimuth
Unknown
Elevation
Unknown
Doppler factor
Unknown
Orbital elements
Apogee altitude
580.23 km
Perigee altitude
572.199 km
Semi-major axis
6,954.351 km
Eccentricity
0.00058
Inclination
97.694°
RAAN
112.1016°
Arg. of periapsis
164.9176°
True anomaly
195.20444°
Mean anomaly
195.2218°
Eccentric anomaly
195.21312°
Mean motion
3.74247 °/min
Orbital period
96.19 mins
BSTAR
0.00025173
Loading maneuver chart data...
Computing Atmospheric mass density...
Loading historical data...
Loading historical data...
Loading historical data...
Loading historical data...
Loading historical data...
Loading historical data...
Loading historical data...

Documentation

Showing up to 5 results
|